METOP A

operational
NORAD ID: 29499 Int'l Des: 2006-044 Owner: EUMET Country: I-EUM
LEORETROGRADESSO

METOP Aについて

説明を読み込み中...

リアルタイム位置

3D地球を読み込み中...

次回通過

高度履歴

Altitude vs Time

uPlot chart will show altitude changes over time

軌道要素

1 29499U 06044A 26061.15979048 .00002079 00000-0 24461-3 0 9993
2 29499 98.3249 164.5982 0175904 50.8899 154.7417 14.75542723 9660
Epoch: Mar 2, 2026 • Age: 28 hours

現在のステータス

高度 624.5 km
速度 7.57 km/s
衛星直下点 53.54°N, 137.89°E
打ち上げ日 Oct 19, 2006
運用期間 19.3 years
タイプ other

技術仕様

分類 Payload
質量 4086.00 kg
乾燥質量 3769.00 kg
総質量 4086.00 kg
長さ 6.30 m
直径 3.40 m
スパン 17.60 m
形状 Box + Pan
製造者 EADSB
バスタイプ Metop
フェーズステータス In Orbit
所有者/国 EUMET/I-EUM

大規模コンステレーション

Loading constellations...